DELTA 1 DEB, 2223

Orbit data source: Space-Track

DELTA 1 DEB, 2223 is space debris in SSO originally from a launch on Mon, 28 Feb 1966 UTC launched from the Air Force Eastern Test Range (AFETR). Debris objects in space refer to the collection of defunct objects orbiting the Earth. Examples of debris include non-operational satellites, rocket bodies, and fragments generated from explosions, collisions, or faulty payload assembly.

Loading next visibility...
Identifier
2223, 1966-016C
Orbit
SSO
Country
Flag of USUS
Related business
Manufacturer
Unknown
Mission
Spacecraft
Bus & Motor
Unknown
Mass
1 kg wet, 1 kg dry
Launch date (UTC)
1966-02-28 (61 years ago)
Launch vehicle
Unknown
Launch site
Air Force Eastern Test Range (AFETR)
Object type
Payload
Rocket body
Debris
Shape & HBR
DISK + CABLE, 1.1 m
Radar Cross Section
Medium (>0.1 m² and <1 m²)

Expand to show TLE details & history
Last TLE update: 14 hours ago

TLE from 14 hours ago
0 DELTA 1 DEB
1 02223U 66016C   26255.00667898 -.00000014  00000-0  11165-3 0  9995
2 02223 100.7254 280.3846 0093946  27.0138  40.0423 12.87776911838138
Epoch: 2026-09-12T00:09Z
TLE epoch observation values (Epoch: 2026-09-12T00:09:37.063Z)
Latitude
65.50786°
Longitude
-97.47816°
Altitude
1,266.523 km
Speed
7.254 km/s
True Right ascension
17h 03m 47s
True Declination
65° 23' 11"
Sunlit
Object was in daylight at epoch
Visualization orbit readout
Latitude
Unknown
Longitude
Unknown
Altitude
Unknown
Speed
Unknown
Apparent Right ascension
Unknown
Apparent Declination
Unknown
Sunlit
N/A
Visualization observer readout
Local Sidereal Time
06:41:17
Azimuth
Unknown
Elevation
Unknown
Doppler factor
Unknown
Orbital elements
Apogee altitude
1,380.004 km
Perigee altitude
1,235.592 km
Semi-major axis
7,685.935 km
Eccentricity
0.00939
Inclination
100.7254°
RAAN
280.3846°
Arg. of periapsis
27.0138°
True anomaly
40.74116°
Mean anomaly
40.0423°
Eccentric anomaly
40.3911°
Mean motion
3.22105 °/min
Orbital period
111.76 mins
BSTAR
0.00011165
Loading maneuver chart data...
Computing Atmospheric mass density...
Loading historical data...
Loading historical data...
Loading historical data...
Loading historical data...
Loading historical data...
Loading historical data...
Loading historical data...
Other satellites on launch #16 in the year 1966 (1966-02-28 UTC)

Documentation

Showing up to 5 results
|